Weather History for Denver, CO

Change the Weather History Date:

Monday, July 15, 2013

  Actual Average Record
Temperature  
Mean Temperature 70 °F 74 °F  
Max Temperature 79 °F 90 °F 101 °F (2006)
Min Temperature 61 °F 59 °F 48 °F (1973)
Degree Days  
Heating Degree Days 0 0  
Month to date heating degree days 0 1  
Since 1 June heating degree days 29 63  
Since 1 July heating degree days 0 1  
Cooling Degree Days 5 10  
Month to date cooling degree days 168 129  
Year to date cooling degree days 431 284  
Since 1 June cooling degree days 389 262  
Growing Degree Days 20 (Base 50)    
Moisture  
Dew Point 58 °F    
Average Humidity 65    
Maximum Humidity 93    
Minimum Humidity 36    
Precipitation  
Precipitation 0.87 in 0.07 in 0.97 in (1992)
Month to date precipitation 1.48 0.90  
Year to date precipitation 7.47 8.41  
Snow  
Snow 0.00 in - - ()
Month to date snowfall 0  
Since 1 June snowfall 0  
Since 1 July snowfall 0  
Snow Depth 0.00 in    
Sea Level Pressure  
Sea Level Pressure 30.05 in    
Wind  
Wind Speed 11 mph (SE)    
Max Wind Speed 26 mph    
Max Gust Speed 31 mph    
Visibility 8 miles    
Events Rain , Thunderstorm    
T = Trace of Precipitation, MM = Missing Value Source: NWS Daily Summary

Daily Weather History Graph

Daily Weather History Graph

Search for Another Location

Airport:

Trip Planner

Search our weather history database for the weather conditions in past years. The results will help you decide how hot, cold, wet, or windy it might be!

Date:

Astronomy

Jul. 15, 2013 Rise Set
Actual Time 5:43 AM MDT 8:25 PM MDT
Civil Twilight 5:11 AM MDT 8:57 PM MDT
Nautical Twilight 4:31 AM MDT 9:37 PM MDT
Astronomical Twilight 3:46 AM MDT 10:21 PM MDT
Moon 1:04 PM MDT (7/15) No Moon Set
Length of Visible Light 15h 46m
Length of Day
14h 42m
Waxing Crescent, 46% of the Moon is Illuminated
Jul 15
Waxing Crescent
Jul 15
First Quarter
Jul 22
Full
Jul 29
Last Quarter
Aug 6
New

Hourly Weather History & Observations

Time (MDT) Temp. Dew Point Humidity Pressure Visibility Wind Dir Wind Speed Gust Speed Precip Events Conditions
12:16 AM 66.2 °F 64.4 °F 94% 30.26 in 5.0 mi ENE 8.1 mph - N/A   Overcast
12:53 AM 66.0 °F 64.0 °F 93% 30.04 in 5.0 mi ENE 8.1 mph - N/A   Mostly Cloudy
1:40 AM 66.2 °F 64.4 °F 94% 30.25 in 4.0 mi East 4.6 mph - N/A   Overcast
1:53 AM 66.0 °F 64.0 °F 93% 30.02 in 4.0 mi East 5.8 mph - N/A   Overcast
2:53 AM 66.0 °F 63.0 °F 90% 30.01 in 3.0 mi East 5.8 mph - 0.00 in Rain Light Rain
3:17 AM 66.2 °F 62.6 °F 88% 30.24 in 5.0 mi Calm Calm - 0.00 in Rain Light Rain
3:53 AM 64.9 °F 62.1 °F 90% 29.99 in 10.0 mi Calm Calm - 0.00 in   Overcast
4:44 AM 64.4 °F 62.6 °F 94% 30.23 in 10.0 mi Calm Calm - N/A   Mostly Cloudy
4:53 AM 64.9 °F 62.1 °F 90% 29.99 in 10.0 mi Calm Calm - N/A   Mostly Cloudy
5:24 AM 64.4 °F 60.8 °F 88% 30.23 in 10.0 mi East 4.6 mph - N/A   Mostly Cloudy
5:53 AM 63.0 °F 61.0 °F 93% 30.01 in 10.0 mi East 4.6 mph - N/A   Mostly Cloudy
6:53 AM 64.9 °F 62.1 °F 90% 30.01 in 10.0 mi ESE 8.1 mph - N/A   Mostly Cloudy
7:53 AM 66.9 °F 62.1 °F 84% 30.04 in 10.0 mi SSE 6.9 mph - N/A   Overcast
8:53 AM 69.1 °F 60.1 °F 73% 30.04 in 10.0 mi SSE 5.8 mph - N/A   Mostly Cloudy
9:53 AM 72.0 °F 59.0 °F 64% 30.02 in 10.0 mi SSW 5.8 mph - N/A   Mostly Cloudy
10:53 AM 73.0 °F 57.9 °F 59% 30.01 in 10.0 mi Calm Calm - N/A   Mostly Cloudy
11:39 AM 64.4 °F 62.6 °F 94% 30.23 in 5.0 mi East 3.5 mph - 0.38 in Rain Heavy Rain
11:53 AM 64.0 °F 63.0 °F 96% 30.04 in 2.0 mi Variable 4.6 mph - 0.64 in Rain Heavy Rain
12:00 PM 64.4 °F 62.6 °F 94% 30.24 in 2.0 mi WSW 10.4 mph - 0.16 in Rain , Thunderstorm Heavy Thunderstorms and Rain
12:44 PM 66.2 °F 60.8 °F 83% 30.23 in 10.0 mi West 4.6 mph - 0.23 in   Mostly Cloudy
12:53 PM 66.9 °F 61.0 °F 81% 30.04 in 10.0 mi South 6.9 mph - 0.23 in   Mostly Cloudy
1:53 PM 75.0 °F 60.1 °F 60% 29.99 in 10.0 mi SSE 19.6 mph 25.3 mph N/A   Mostly Cloudy
2:53 PM 75.9 °F 55.9 °F 50% 29.97 in 10.0 mi SSE 17.3 mph 23.0 mph N/A   Mostly Cloudy
3:53 PM 79.0 °F 55.0 °F 44% 29.95 in 10.0 mi ESE 13.8 mph 21.9 mph N/A   Mostly Cloudy
4:53 PM 75.9 °F 52.0 °F 43% 29.95 in 10.0 mi South 17.3 mph 21.9 mph N/A   Mostly Cloudy
5:53 PM 75.9 °F 48.0 °F 37% 29.94 in 10.0 mi SSE 17.3 mph - N/A   Mostly Cloudy
6:53 PM 75.0 °F 46.9 °F 37% 29.95 in 10.0 mi SSE 17.3 mph 25.3 mph N/A   Scattered Clouds
7:53 PM 71.1 °F 48.9 °F 45% 29.97 in 10.0 mi SSE 18.4 mph - N/A   Scattered Clouds
8:53 PM 68.0 °F 48.0 °F 49% 29.98 in 10.0 mi SE 17.3 mph - N/A   Scattered Clouds
9:53 PM 64.0 °F 46.0 °F 52% 30.01 in 10.0 mi SSE 12.7 mph - N/A   Partly Cloudy
10:53 PM 63.0 °F 45.0 °F 52% 30.02 in 10.0 mi SSE 15.0 mph - N/A   Partly Cloudy
11:53 PM 62.1 °F 48.0 °F 60% 30.04 in 10.0 mi SSE 17.3 mph 27.6 mph N/A   Partly Cloudy